Location: Newark
(48.6461°N, 4.3644°W)
Time: 02:03:18
(UTC+00:00)

A-11 Canister half - Pass Details

Date: 31 January 2020
Orbit: 1517 x 1683 km, 47.2° (Epoch: 25 February)

Event Time Altitude Azimuth Distance (km) Brightness Sun altitude
Exits shadow 02:53:56 22° 117° (ESE) 2,843 10.5 -47.5°
Drops below altitude 10° 02:56:37 10° 115° (ESE) 3,683 11.2 -47.1°
Sets 02:59:40 0° 113° (ESE) 4,673 11.9 -46.7°
